[[{"header":{"parameterUnit":"m.s-1","parameterCategory":1,"la1":30.2991,"la2":30.254,"lo1":-89.0895,"lo2":-89.0444,"dy":0.0017,"dx":0.0017,"nx":28,"ny":28,"refTime":"2024-12-23T03:00:00:Z","depth":0,"parameterNumber":2,"parameterNumberName":"U-component_of_WINDS"},"data":[0,0,0,0,0,0,0,0,0,0,0,0,0,0,0,0,0,0,0,0,0,0,0,0,0,0,0,0,0,0,0,0,0,0,0,0,0,0,0,0,0,0,0,0,0,0,0,0,0,0,0,0,0,0,0,0,0,0,-3.4361,-3.4362,0,-3.445,-3.4451,-3.4452,-3.4324,-3.432,-3.4315,-3.4311,-3.4407,-3.4414,-3.442,0,0,0,0,0,0,0,0,0,0,0,0,0,-3.4087,-3.4092,-3.4361,-3.4362,-3.4363,-3.445,-3.4451,-3.4452,-3.4325,-3.432,-3.4314,-3.4309,-3.4405,-3.4413,-3.4421,0,0,0,0,0,0,0,0,0,0,0,0,0,-3.4194,-3.4094,-3.4361,-3.431,-3.4307,-3.4449,-3.4451,-3.4452,-3.4326,-3.4319,-3.4313,-3.4306,-3.4402,-3.4412,-3.4422,-3.462,0,0,-3.4453,-3.4457,0,0,0,0,0,0,0,0,-3.4188,-3.4204,-3.4317,-3.4314,-3.431,-3.4369,-3.4389,-3.4509,-3.4328,-3.4319,-3.4311,-3.4303,-3.44,-3.441,-3.4442,-3.4625,-3.4629,-3.4454,-3.446,-3.4464,-3.4467,0,0,0,0,0,0,0,-3.4181,-3.42,-3.4396,-3.4318,-3.4315,-3.4285,-3.4292,-3.4411,-3.4397,-3.4319,-3.431,-3.4322,-3.4397,-3.4432,-3.4443,-3.463,-3.4454,-3.4463,-3.4469,-3.4473,-3.4982,-3.4989,0,0,0,0,0,0,-3.4179,-3.4194,-3.4393,-3.4399,-3.4231,-3.4295,-3.4304,-3.4357,-3.4395,-3.4394,-3.4328,-3.4316,-3.4418,-3.4431,-3.4446,-3.4681,-3.4464,-3.4474,-3.448,-3.4974,-3.4983,-3.4991,0,0,0,0,0,0,-3.4173,-3.4198,-3.439,-3.4294,-3.4316,-3.4307,-3.4368,-3.4362,-3.4397,-3.4401,-3.4399,-3.4366,-3.4413,-3.4432,-3.4578,-3.4683,-3.4478,-3.4488,-3.4966,-3.4977,-3.4987,-3.5154,0,0,0,0,0,0,-3.4166,-3.4196,-3.4271,-3.4297,-3.4322,-3.4519,-3.4374,-3.4369,-3.4414,-3.44,-3.4437,-3.4436,-3.4409,-3.4563,-3.4588,-3.4693,-3.4496,-3.4956,-3.4971,-3.4984,-3.5139,-3.5169,-3.5195,0,0,0,0,0,-3.4157,-3.4315,-3.4275,-3.43,-3.4414,-3.4526,-3.454,-3.4505,-3.4423,-3.4499,-3.4501,-3.4435,-3.4667,-3.4579,-3.4606,-3.4716,-3.4949,-3.4967,-3.4983,-3.5127,-3.5164,-3.5195,0,0,0,0,0,0,-3.4303,-3.4317,-3.4273,-3.4444,-3.4485,-3.4504,-3.4598,-3.4545,-3.461,-3.4594,-3.4548,-3.4558,-3.4715,-3.4729,-3.4631,-3.491,-3.4795,-3.4818,-3.4895,-3.493,-3.4958,-3.4952,-3.4504,0,0,0,0,0,-3.4355,-3.4443,-3.4451,-3.4601,-3.4623,-3.4608,-3.4655,-3.4624,-3.4664,-3.4681,-3.4694,-3.4738,-3.482,-3.4876,-3.4952,-3.514,-3.5147,-3.5229,-3.5257,-3.528,-3.5301,-3.5403,-3.544,-3.5046,-3.5046,-3.5046,0,0,-3.4464,-3.4482,-3.4541,-3.4631,-3.4659,-3.4752,-3.4623,-3.4727,-3.4797,-3.4697,-3.4836,-3.4848,-3.4893,-3.5061,-3.5136,-3.5079,-3.5411,-3.5302,-3.532,-3.5328,-3.5424,-3.5462,-3.5495,-3.5058,-3.5056,-3.5054,0,0,-3.471,-3.4732,-3.486,-3.489,-3.4933,-3.4921,-3.4952,-3.498,-3.4983,-3.5121,-3.5049,-3.5131,-3.5274,-3.531,-3.5347,-3.5607,-3.5549,-3.5633,-3.5781,-3.5881,-3.5912,-3.594,-3.6034,-3.6068,-3.5654,-3.5654,-3.5654,0,-3.4841,-3.4977,-3.4933,-3.5043,-3.5086,-3.4998,-3.5129,-3.516,-3.5227,-3.5259,-3.5193,-3.5371,-3.5395,-3.5571,-3.5635,-3.5667,-3.5702,-3.563,-3.5911,-3.5938,-3.5963,-3.6053,-3.6088,-3.5664,-3.5663,-3.5662,-3.5661,0,-3.5136,-3.5232,-3.5331,-3.5395,-3.5449,-3.5569,-3.5545,-3.5604,-3.5569,-3.5565,-3.5707,-3.5733,-3.5814,-3.5853,-3.582,-3.6025,-3.5988,-3.5918,-3.5801,-3.6011,-3.6095,-3.6129,-3.5678,-3.5675,-3.5672,-3.5669,0,0,-3.5478,-3.5517,-3.5554,-3.5582,-3.5623,-3.5697,-3.5814,-3.5891,-3.5944,-3.5992,-3.609,-3.6213,-3.6148,-3.619,-3.616,-3.6248,-3.6454,-3.6166,-3.6166,-3.622,-3.6684,-3.6738,-3.6779,-3.6415,-3.6421,-3.6426,-3.6681,0,-3.5725,-3.5924,-3.5888,-3.6083,-3.6172,-3.609,-3.6192,-3.6229,-3.6228,-3.6305,-3.6304,-3.6393,-3.6299,-3.6324,-3.6407,-3.6411,-3.6547,-3.6392,-3.6508,-3.6513,-3.6501,-3.6822,-3.6879,-3.7118,-3.6713,-3.6718,-3.6722,0,-3.604,-3.6099,-3.6302,-3.6329,-3.6365,-3.6457,-3.6525,-3.6599,-3.664,-3.6633,-3.668,-3.6634,-3.6752,-3.6632,-3.6795,-3.6691,-3.6736,-3.6745,-3.6754,-3.6764,-3.6631,-3.6843,-3.7193,-3.723,-3.6773,-3.6769,-3.6765,0,-3.6271,-3.6401,-3.654,-3.6567,-3.6601,-3.6668,-3.6686,-3.672,-3.6769,-3.6829,-3.686,-3.6934,-3.6975,-3.7034,-3.701,-3.6925,-3.7179,-3.7056,-3.7178,-3.7179,-3.7237,-3.7234,-3.7601,-3.7264,-3.7263,-3.7262,-3.7262,0,-3.6551,-3.6679,-3.6644,-3.673,-3.6871,-3.6829,-3.6971,-3.6979,-3.7011,-3.7098,-3.7031,-3.7115,-3.7077,-3.7159,-3.7141,-3.7279,-3.7298,-3.7298,-3.7292,-3.7305,-3.7305,-3.7335,-3.7318,-3.7272,-3.727,-3.7268,-3.7266,0,-3.6834,-3.6815,-3.6961,-3.6982,-3.699,-3.7094,-3.7112,-3.7193,-3.7187,-3.7298,-3.7322,-3.7313,-3.7406,-3.7387,-3.7489,-3.7477,-3.7651,-3.7624,-3.7638,-3.7632,-3.7755,-3.7745,-3.8156,-3.8208,-3.7835,-3.7839,-3.7842,0,-3.7015,-3.7111,-3.7142,-3.7195,-3.7217,-3.7303,-3.7352,-3.7315,-3.737,-3.7424,-3.7499,-3.7585,-3.7652,-3.7804,-3.7808,-3.7887,-3.7862,-3.8,-3.7873,-3.7884,-3.7866,-3.7861,-3.7872,-3.8026,-3.8031,-3.8034,-3.8037,0,-3.7339,-3.7325,-3.7397,-3.7467,-3.7527,-3.7581,-3.7629,-3.7676,-3.7643,-3.7708,-3.7801,-3.7853,-3.7957,-3.8044,-3.8117,-3.8137,-3.8084,-3.8076,-3.8109,-3.8124,-3.8129,-3.813,-3.7708,-3.8068,-3.8065,-3.8062,-3.8061,-3.8059,-3.7577,-3.7659,-3.7694,-3.7777,-3.7809,-3.7855,-3.7932,-3.7935,-3.8011,-3.8092,-3.8066,-3.8172,-3.8212,-3.8303,-3.8332,-3.8416,-3.8365,-3.8412,-3.8424,-3.8437,-3.8452,-3.8114,-3.8429,-3.8428,-3.8427,-3.8427,-3.8426,0,-3.7899,-3.7916,-3.7993,-3.8061,-3.8128,-3.8068,-3.8118,-3.8178,-3.8272,-3.8313,-3.838,-3.8488,-3.8572,-3.8583,-3.8663,-3.8728,-3.8706,-3.8751,-3.8747,-3.8753,-3.8493,-3.8457,-3.8768,-3.8768,-3.8768,-3.8768,-3.8768,-3.8768,-3.8074,-3.821,-3.82,-3.8352,-3.8369,-3.8472,-3.8506,-3.8549,-3.8581,-3.8704,-3.8773,-3.8778,-3.8808,-3.8889,-3.8965,-3.8966,-3.9,-3.9055,-3.9047,-3.8805,-3.8771,-3.8738,-3.8705,-3.9062,-3.9063,-3.93,-3.9302,-3.9304]},{"header":{"parameterUnit":"m.s-1","parameterCategory":1,"la1":30.2991,"la2":30.254,"lo1":-89.0895,"lo2":-89.0444,"dy":0.0017,"dx":0.0017,"nx":28,"ny":28,"refTime":"2024-12-23T03:00:00:Z","depth":0,"parameterNumber":3,"parameterNumberName":"V-component_of_WINDS"},"data":[0,0,0,0,0,0,0,0,0,0,0,0,0,0,0,0,0,0,0,0,0,0,0,0,0,0,0,0,0,0,0,0,0,0,0,0,0,0,0,0,0,0,0,0,0,0,0,0,0,0,0,0,0,0,0,0,0,0,-1.7559,-1.7559,0,-1.7572,-1.7572,-1.7572,-1.7561,-1.7561,-1.756,-1.756,-1.7572,-1.7573,-1.7573,0,0,0,0,0,0,0,0,0,0,0,0,0,-1.7523,-1.7523,-1.7559,-1.7559,-1.7559,-1.7572,-1.7572,-1.7572,-1.7561,-1.7561,-1.756,-1.7559,-1.7572,-1.7573,-1.7573,0,0,0,0,0,0,0,0,0,0,0,0,0,-1.7537,-1.7524,-1.7559,-1.7555,-1.7555,-1.7572,-1.7572,-1.7572,-1.7561,-1.7561,-1.756,-1.7559,-1.7571,-1.7572,-1.7574,-1.7594,0,0,-1.7577,-1.7578,0,0,0,0,0,0,0,0,-1.7536,-1.7539,-1.7556,-1.7556,-1.7555,-1.7564,-1.7564,-1.758,-1.7561,-1.7559,-1.756,-1.7559,-1.757,-1.7571,-1.7575,-1.7595,-1.7595,-1.7577,-1.7578,-1.7578,-1.7579,0,0,0,0,0,0,0,-1.7535,-1.7538,-1.7564,-1.7556,-1.7556,-1.7552,-1.7554,-1.7567,-1.7568,-1.7559,-1.7558,-1.756,-1.757,-1.7574,-1.7575,-1.7596,-1.7577,-1.7578,-1.7579,-1.7579,-1.7632,-1.7633,0,0,0,0,0,0,-1.7535,-1.7537,-1.7564,-1.7564,-1.7544,-1.7554,-1.7555,-1.7562,-1.7568,-1.7568,-1.7561,-1.7559,-1.7572,-1.7574,-1.7576,-1.76,-1.7578,-1.7579,-1.758,-1.7631,-1.7632,-1.7633,0,0,0,0,0,0,-1.7534,-1.7537,-1.7563,-1.7551,-1.7554,-1.7555,-1.7563,-1.7563,-1.7567,-1.7569,-1.7569,-1.7565,-1.7572,-1.7574,-1.759,-1.76,-1.758,-1.7581,-1.763,-1.7632,-1.7633,-1.7648,0,0,0,0,0,0,-1.7533,-1.7537,-1.7546,-1.7551,-1.7554,-1.7577,-1.7563,-1.7563,-1.7569,-1.7568,-1.7573,-1.7573,-1.7571,-1.7588,-1.7591,-1.7601,-1.7582,-1.763,-1.7631,-1.7632,-1.7647,-1.765,-1.7652,0,0,0,0,0,-1.7532,-1.755,-1.7546,-1.7549,-1.7565,-1.7578,-1.758,-1.7578,-1.757,-1.7578,-1.7579,-1.7573,-1.7598,-1.759,-1.7593,-1.7603,-1.7629,-1.7631,-1.7632,-1.7645,-1.7649,-1.7652,0,0,0,0,0,0,-1.7546,-1.755,-1.7547,-1.7567,-1.7572,-1.7576,-1.7586,-1.7582,-1.759,-1.7588,-1.7585,-1.7586,-1.7602,-1.7604,-1.7595,-1.7623,-1.7612,-1.7614,-1.7621,-1.7625,-1.7627,-1.7626,-1.7583,0,0,0,0,0,-1.7551,-1.7562,-1.7565,-1.7582,-1.7585,-1.7585,-1.7591,-1.7589,-1.7594,-1.7596,-1.7599,-1.7604,-1.7613,-1.7619,-1.7627,-1.7647,-1.7647,-1.7656,-1.7658,-1.7661,-1.7663,-1.7672,-1.7676,-1.7638,-1.7638,-1.7638,0,0,-1.7562,-1.7566,-1.7573,-1.7585,-1.7589,-1.76,-1.7587,-1.7599,-1.7607,-1.7598,-1.7613,-1.7615,-1.762,-1.7638,-1.7645,-1.764,-1.7673,-1.7663,-1.7664,-1.7665,-1.7674,-1.7678,-1.7681,-1.7639,-1.7639,-1.7639,0,0,-1.7588,-1.7592,-1.7606,-1.761,-1.7617,-1.7616,-1.762,-1.7625,-1.7625,-1.764,-1.7634,-1.7642,-1.7658,-1.7662,-1.7666,-1.7692,-1.7686,-1.7694,-1.7708,-1.7718,-1.7721,-1.7723,-1.7732,-1.7735,-1.7696,-1.7696,-1.7696,0,-1.7601,-1.7617,-1.7614,-1.7626,-1.7631,-1.7624,-1.7638,-1.7642,-1.765,-1.7654,-1.7648,-1.7666,-1.767,-1.7687,-1.7694,-1.7697,-1.7701,-1.7694,-1.7721,-1.7723,-1.7726,-1.7734,-1.7737,-1.7697,-1.7697,-1.7697,-1.7697,0,-1.7632,-1.7643,-1.7654,-1.7662,-1.7668,-1.7682,-1.768,-1.7687,-1.7684,-1.7684,-1.7698,-1.7702,-1.771,-1.7714,-1.7712,-1.7732,-1.7728,-1.7721,-1.771,-1.773,-1.7738,-1.7741,-1.7699,-1.7698,-1.7698,-1.7698,0,0,-1.7668,-1.7673,-1.7677,-1.7681,-1.7686,-1.7694,-1.7707,-1.7715,-1.772,-1.7726,-1.7736,-1.7749,-1.7742,-1.7747,-1.7744,-1.7753,-1.7772,-1.7745,-1.7745,-1.7749,-1.7793,-1.7798,-1.7802,-1.7768,-1.7769,-1.7769,-1.7792,0,-1.7693,-1.7714,-1.7712,-1.7732,-1.7742,-1.7734,-1.7745,-1.7749,-1.7749,-1.7757,-1.7757,-1.7766,-1.7757,-1.776,-1.7767,-1.7768,-1.7781,-1.7766,-1.7777,-1.7777,-1.7775,-1.7806,-1.7811,-1.7833,-1.7795,-1.7796,-1.7796,0,-1.7726,-1.7732,-1.7754,-1.7757,-1.7761,-1.777,-1.7777,-1.7785,-1.7789,-1.7789,-1.7793,-1.7789,-1.78,-1.7789,-1.7804,-1.7794,-1.7798,-1.7799,-1.78,-1.7801,-1.7788,-1.7807,-1.784,-1.7843,-1.7801,-1.7801,-1.78,0,-1.7749,-1.7763,-1.7777,-1.778,-1.7785,-1.7791,-1.7793,-1.7797,-1.7802,-1.7807,-1.781,-1.7818,-1.7821,-1.7827,-1.7824,-1.7816,-1.784,-1.7828,-1.7839,-1.7839,-1.7844,-1.7844,-1.7878,-1.7847,-1.7847,-1.7847,-1.7847,0,-1.7777,-1.779,-1.7788,-1.7796,-1.7811,-1.7807,-1.7821,-1.7822,-1.7825,-1.7833,-1.7827,-1.7835,-1.7831,-1.7838,-1.7836,-1.7849,-1.7851,-1.785,-1.785,-1.7851,-1.7851,-1.7853,-1.7852,-1.7848,-1.7848,-1.7848,-1.7848,0,-1.7806,-1.7804,-1.7819,-1.7822,-1.7822,-1.7833,-1.7834,-1.7842,-1.7842,-1.7852,-1.7854,-1.7853,-1.7862,-1.786,-1.7869,-1.7867,-1.7883,-1.788,-1.7882,-1.7881,-1.7892,-1.7891,-1.7929,-1.7933,-1.79,-1.79,-1.79,0,-1.7824,-1.7834,-1.7837,-1.7842,-1.7844,-1.7853,-1.7858,-1.7854,-1.7859,-1.7864,-1.7871,-1.7879,-1.7885,-1.7898,-1.7898,-1.7905,-1.7902,-1.7915,-1.7903,-1.7904,-1.7902,-1.7901,-1.7902,-1.7917,-1.7918,-1.7918,-1.7918,0,-1.7856,-1.7855,-1.7862,-1.7869,-1.7875,-1.788,-1.7884,-1.7889,-1.7885,-1.7891,-1.79,-1.7904,-1.7913,-1.7921,-1.7927,-1.7928,-1.7923,-1.7922,-1.7925,-1.7926,-1.7926,-1.7926,-1.7888,-1.7921,-1.7921,-1.7921,-1.7921,-1.7921,-1.788,-1.7888,-1.7891,-1.7899,-1.7902,-1.7906,-1.7913,-1.7913,-1.792,-1.7927,-1.7925,-1.7934,-1.7937,-1.7944,-1.7946,-1.7953,-1.7948,-1.7953,-1.7954,-1.7955,-1.7956,-1.7925,-1.7954,-1.7954,-1.7954,-1.7954,-1.7954,0,-1.7912,-1.7913,-1.792,-1.7927,-1.7933,-1.7927,-1.7931,-1.7936,-1.7945,-1.7948,-1.7954,-1.7963,-1.797,-1.797,-1.7976,-1.7982,-1.7979,-1.7984,-1.7983,-1.7983,-1.796,-1.7957,-1.7985,-1.7985,-1.7985,-1.7985,-1.7985,-1.7985,-1.7929,-1.7942,-1.7941,-1.7955,-1.7956,-1.7965,-1.7968,-1.7971,-1.7974,-1.7984,-1.799,-1.799,-1.7991,-1.7998,-1.8004,-1.8003,-1.8006,-1.8011,-1.801,-1.7988,-1.7985,-1.7982,-1.7979,-1.8012,-1.8012,-1.8033,-1.8033,-1.8033]}]]